Location: Karcze
(52.0945°N, 22.4786°E)
Time: 22:00:26
(UTC+00:00)

Transit 2A Rocket - Pass Details

Date: 04 August 2021
Orbit: 586 x 917 km, 66.7° (Epoch: 26 September)

Event Time Altitude Azimuth Distance (km) Brightness Sun altitude
Rises 16:55:26 0° 311° (NW) 3,105 9.4 10.5°
Reaches altitude 10° 16:58:27 10° 330° (NNW) 2,251 8.2 10.0°
Maximum altitude 17:01:59 18° 14° (NNE) 1,827 7.1 9.5°
Drops below altitude 10° 17:05:42 10° 56° (ENE) 2,402 7.2 9.0°
Sets 17:09:04 0° 75° (ENE) 3,399 7.8 8.5°
